Flag for French Polynesia Weather past 2 weeks in Papeete, Tahiti, French Polynesia

Now
82 °F

Passing clouds.


Feels Like: 86 °F
Forecast: 79 / 89 °F
Wind: 8 mph from Northeast

Location: Tahiti-Faaa

Current Time: Mar 31, 2015 at 7:35:37 PM

Latest Report: Mar 31, 2015 at 7:00 PM


Visibility: N/A

Pressure: 29.95 "Hg

Humidity: 66%

Dew point: 70 °F

Location of PapeeteLocation

Historic Weather in Papeete — Graph

°F

Papeete temperature yesterday

Maximum temperature yesterday: 88 °F (at 10:00 AM)
Minimum temperature yesterday: 77 °F (at 2:00 AM)
Average temperature yesterday: 83 °F

Past Weeks' High & Low Weather Summary

 TemperatureHumidityPressure
High90 °F (Mar 17, 1:30 PM)94% (Mar 20, 3:00 AM)30.01 "Hg (Mar 20, 3:00 AM)
Low73 °F (Mar 17, 6:00 AM)52% (Mar 17, 12:00 PM)29.71 "Hg (Mar 16, 6:00 PM)
Average82 °F73%29.89 "Hg
* Reported Mar 16 6:00 PM — Mar 31 6:00 PM, Papeete, Weather by CustomWeather, © 2015

Note: Actual official high and low records may vary slightly from our data, if they occured in-between our weather recording intervals... More about our weather records

Advertising

Papeete weather history for previous 24 hours

 ConditionsComfort  
Time TempWeatherWind HumidityBarometerVisibility
6:00 PM
Tue, Mar 31
84 °FPassing clouds.12 mph66%29.92 "HgN/A
5:30 PM86 °FPassing clouds.10 mph66%29.92 "HgN/A
5:00 PM86 °FPassing clouds.10 mph66%29.92 "HgN/A
4:30 PM88 °FPassing clouds.12 mph62%29.92 "HgN/A
4:00 PM88 °FPassing clouds.12 mph62%29.89 "HgN/A
3:30 PM88 °FPassing clouds.13 mph62%29.89 "HgN/A
3:00 PM88 °FPassing clouds.14 mph62%29.89 "HgN/A
2:30 PM90 °FPassing clouds.14 mph63%29.89 "HgN/A
2:00 PM88 °FPassing clouds.15 mph66%29.89 "HgN/A
1:30 PM88 °FScattered clouds.14 mph62%29.92 "HgN/A
1:00 PM90 °FScattered clouds.15 mph63%29.92 "HgN/A
12:30 PM90 °FScattered showers. Scattered clouds.14 mph67%29.92 "HgN/A
11:30 AM88 °FPassing clouds.15 mph66%29.95 "HgN/A
11:00 AM88 °FPassing clouds.14 mph66%29.95 "HgN/A
10:30 AM88 °FPassing clouds.14 mph66%29.95 "HgN/A
10:00 AM88 °FPassing clouds.14 mph62%29.98 "HgN/A
9:30 AM86 °FPassing clouds.13 mph66%29.98 "HgN/A
9:00 AM86 °FPassing clouds.12 mph62%29.98 "HgN/A
8:30 AM84 °FPassing clouds.9 mph70%29.98 "HgN/A
8:00 AM82 °FPassing clouds.6 mph70%29.98 "HgN/A
7:30 AM79 °FPassing clouds.5 mph74%29.95 "HgN/A
7:00 AM81 °FScattered showers. Scattered clouds.9 mph70%29.95 "HgN/A
6:30 AM81 °FPassing clouds.6 mph66%29.95 "HgN/A
6:00 AM81 °FPassing clouds.6 mph66%29.92 "HgN/A
5:30 AM81 °FWarm.6 mph66%29.92 "HgN/A
5:00 AM81 °FWarm.8 mph70%29.92 "HgN/A
4:30 AM81 °FWarm.7 mph66%29.92 "HgN/A
4:00 AM81 °FWarm.7 mph66%29.89 "HgN/A
3:30 AM79 °FWarm.5 mph70%29.92 "HgN/A
3:00 AM79 °FPassing clouds.5 mph70%29.92 "HgN/A
2:30 AM81 °FPassing clouds.6 mph66%29.92 "HgN/A
2:00 AM81 °FPassing clouds.7 mph66%29.92 "HgN/A
1:30 AM81 °FPassing clouds.7 mph66%29.92 "HgN/A
1:00 AM81 °FPassing clouds.7 mph66%29.92 "HgN/A
12:30 AM81 °FPassing clouds.7 mph66%29.95 "HgN/A
12:00 AM81 °FPassing clouds.8 mph66%29.95 "HgN/A
11:30 PM
Mon, Mar 30
81 °FPassing clouds.7 mph66%29.95 "HgN/A
11:00 PM81 °FPassing clouds.6 mph70%29.98 "HgN/A
10:30 PM81 °FPassing clouds.3 mph66%29.98 "HgN/A
10:08 PM81 °FPassing clouds.3 mph66%29.98 "HgN/A
9:30 PM81 °FPassing clouds.5 mph70%29.98 "HgN/A
9:00 PM81 °FPassing clouds.5 mph66%29.95 "HgN/A
8:30 PM82 °FPassing clouds.7 mph62%29.95 "HgN/A
8:00 PM82 °FPassing clouds.6 mph66%29.95 "HgN/A
7:30 PM82 °FPassing clouds.7 mph66%29.92 "HgN/A
7:00 PM82 °FPassing clouds.9 mph66%29.92 "HgN/A
Weather by CustomWeather, © 2015

See weather overviewHow to use our weather pages